Regional Weather Roundup
Issued by NWS

Home | Current Version | Previous Version | Text Only | Print | Product List | Glossary Off
Versions: 1 2 3 4 5 6 7 8 9 10 11 12 13 14 15 16 17 18 19 20 21 22 23 24 25 26 27 28 29 30 31 32 33 34 35 36 37 38 39 40 41 42 43 44 45 46 47 48 49 50

137
ASUS43 KLMK 190802
RWRKY
KENTUCKY REGIONAL WEATHER ROUNDUP
NATIONAL WEATHER SERVICE LOUISVILLE KY
400 AM EDT SAT AUG 19 2017

NOTE "FAIR" INDICATES FEW OR NO CLOUDS BELOW 12,000 FEET
WITH NO SIGNIFICANT WEATHER AND/OR OBSTRUCTIONS TO VISIBILITY.

KYZ001>023-026-027-061>063-070>075-190900-
WESTERN AND SOUTH CENTRAL KENTUCKY

CITY           SKY/WX    TMP DP  RH WIND       PRES   REMARKS
PADUCAH        CLEAR     71  65  81 CALM      29.93S
HENDERSON      PTCLDY    68  66  93 CALM      29.93R
OWENSBORO      CLOUDY    70  66  87 S5        29.92F
HOPKINSVILLE   PTCLDY    72  67  85 CALM      29.95F
BOWLING GREEN  CLOUDY    72  68  87 S5        29.97F
GLASGOW        CLOUDY   N/A N/A N/A CALM      29.98S
$$

KYZ024-025-028>034-038-045-046-053-190900-
NORTH CENTRAL KENTUCKY

CITY           SKY/WX    TMP DP  RH WIND       PRES   REMARKS
LOUISVILLE/SDF MOCLDY    74  66  76 SE5       29.93F
LOUISVILLE/LOU CLOUDY    73  68  84 CALM      29.94F
FORT KNOX      MOCLDY    68  64  88 SE3       29.93F
$$

KYZ035>037-039>044-047>052-055>060-089>105-190900-
NORTHEAST KENTUCKY

CITY           SKY/WX    TMP DP  RH WIND       PRES   REMARKS
LEXINGTON      CLOUDY    67  63  87 S5        29.98S
COVINGTON      CLOUDY    67  66  97 S5        29.94F
FRANKFORT      CLOUDY    68  64  87 SW5       29.96S
$$

KYZ054-064>069-076>088-106>120-190900-
SOUTHEAST KENTUCKY

CITY           SKY/WX    TMP DP  RH WIND       PRES   REMARKS
JACKSON        CLEAR     66  63  90 CALM      30.01R
LONDON         CLEAR     64  63  96 CALM      30.02R FOG
SOMERSET       NOT AVBL
MIDDLESBORO    FOG       63  63 100 CALM      30.03S VSB 1/4
MONTICELLO     SUNNY     63  62  97 W13       30.03R FOG
$$





USA.gov is the U.S. government's official web portal to all federal, state and local government web resources and services.